Stations météo

réclame
Mon MeteoGroup
Hoorn-A, Pays-Bas (6212): Température de l'air & dewpoint: 05.12.2018 08:00:00 - 11.12.2018 08:00:00 (CET)Hoorn-A, Pays-Bas (6212): Vitesse du vent & gusts: 05.12.2018 08:00:00 - 11.12.2018 08:00:00 (CET)Hoorn-A, Pays-Bas (6212): Direction du vent: 05.12.2018 08:00:00 - 11.12.2018 08:00:00 (CET)Hoorn-A, Pays-Bas (6212): reduced air pressure: 05.12.2018 08:00:00 - 11.12.2018 08:00:00 (CET)Hoorn-A, Pays-Bas (6212): visibility: 05.12.2018 08:00:00 - 11.12.2018 08:00:00 (CET)
Date & Time tt [°C] td [°C] ff [km/h] ff [knt] fx [km/h] fx [knt] dd ppp [hPa] vv [km]
11.12.2018 08:00:00 - - - - - - - - -
11.12.2018 07:00:00 8,0 0,9 41 22 47 25 NNW 1023,6 10
11.12.2018 06:00:00 8,1 2,0 39 21 47 25 NNW 1023,8 10
11.12.2018 05:00:00 7,4 2,7 46 25 47 25 NNW 1023,8 10
11.12.2018 04:00:00 7,9 1,6 32 18 47 25 NW 1023,7 44
11.12.2018 03:00:00 8,1 0,7 36 19 54 29 NW 1023,8 46
11.12.2018 02:00:00 7,8 1,9 44 24 47 25 NNW 1023,9 10
11.12.2018 01:00:00 8,0 1,4 48 26 54 29 NNW 1024,1 10
11.12.2018 00:00:00 7,4 3,2 54 29 54 29 NW 1023,9 10
10.12.2018 23:00:00 8,1 2,3 48 26 58 31 NW 1023,9 10
10.12.2018 22:00:00 7,8 2,8 54 29 54 29 NW 1023,5 10
10.12.2018 21:00:00 7,9 3,3 46 25 58 31 NNW 1023,7 10
10.12.2018 20:00:00 8,2 2,7 57 31 61 33 NNW 1023,5 10
10.12.2018 19:00:00 8,3 2,0 59 32 58 31 NW 1023,2 10
10.12.2018 18:00:00 8,3 1,7 55 30 61 33 NW 1023,0 10
10.12.2018 17:00:00 8,2 1,5 61 33 61 33 NW 1022,9 10
10.12.2018 16:00:00 8,0 2,0 63 34 68 37 NW 1022,1 10
10.12.2018 15:00:00 7,6 1,2 59 32 65 35 NW 1022,1 -
10.12.2018 14:00:00 7,9 1,2 63 34 61 33 NW 1021,4 10
10.12.2018 13:00:00 7,9 0,4 61 33 61 33 NW 1021,5 10
10.12.2018 12:00:00 8,1 0,6 59 32 61 33 NW 1021,2 10
10.12.2018 11:00:00 8,0 1,4 65 35 65 35 NW 1020,8 10
10.12.2018 10:00:00 7,5 2,7 67 36 72 39 NW 1020,1 10
10.12.2018 09:00:00 8,1 2,0 61 33 61 33 NW 1019,4 10
10.12.2018 08:00:00 7,8 3,9 63 34 65 35 NW 1018,9 10
10.12.2018 07:00:00 8,2 2,9 61 33 68 37 NNW 1018,4 10
10.12.2018 06:00:00 8,1 2,9 59 32 76 41 NW 1018,4 10
10.12.2018 05:00:00 7,6 3,3 52 28 58 31 NW 1017,9 10
10.12.2018 04:00:00 6,9 2,6 59 32 68 37 NW 1017,3 10
10.12.2018 03:00:00 7,4 1,6 65 35 76 41 NW 1016,8 10
10.12.2018 02:00:00 8,3 1,8 59 32 76 41 NW 1016,0 10
10.12.2018 01:00:00 7,9 2,9 63 34 76 41 NW 1015,7 10
10.12.2018 00:00:00 7,9 2,8 63 34 76 41 NNW 1015,2 10
09.12.2018 23:00:00 8,3 2,4 72 39 72 39 NW 1014,2 10
09.12.2018 22:00:00 8,5 1,9 59 32 76 41 NW 1013,1 10
09.12.2018 21:00:00 8,9 1,9 70 38 68 37 NW 1012,4 10
09.12.2018 20:00:00 8,7 3,5 70 38 79 43 NW 1011,1 10
09.12.2018 19:00:00 8,4 3,5 61 33 79 43 NW 1009,4 10
09.12.2018 18:00:00 9,3 2,4 65 35 65 35 NW 1008,5 10
09.12.2018 17:00:00 9,5 3,4 61 33 65 35 NNW 1006,9 10
09.12.2018 16:00:00 9,4 4,2 61 33 68 37 NW 1005,2 10
09.12.2018 15:00:00 9,3 5,2 63 34 68 37 NW 1003,5 9
09.12.2018 14:00:00 9,4 5,9 67 36 68 37 NW 1001,5 4,1
09.12.2018 13:00:00 9,7 5,4 63 34 65 35 NW 1000,0 10
09.12.2018 12:00:00 9,6 4,5 61 33 65 35 WNW 998,5 10
09.12.2018 11:00:00 9,6 5,1 55 30 58 31 NW 997,1 10
09.12.2018 10:00:00 9,5 4,7 57 31 61 33 NW 996,2 10
09.12.2018 09:00:00 9,9 5,3 54 29 58 31 WNW 994,8 10
09.12.2018 08:00:00 9,1 7,1 61 33 65 35 W 993,8 8
09.12.2018 07:00:00 9,4 6,3 54 29 65 35 WNW 992,6 10
09.12.2018 06:00:00 7,9 6,9 68 37 90 49 WNW 991,5 3,3
09.12.2018 05:00:00 10,2 6,2 83 45 83 45 W 990,3 10
09.12.2018 04:00:00 10,1 6,3 70 38 83 45 W 989,7 10
09.12.2018 03:00:00 10,4 6,1 72 39 83 45 SW 989,7 3,6
09.12.2018 02:00:00 10,4 6,1 80 43 83 45 W 989,3 10
09.12.2018 01:00:00 10,4 6,4 78 42 86 47 W 989,4 10
09.12.2018 00:00:00 10,2 6,4 83 45 83 45 W 989,2 10
08.12.2018 23:00:00 10,6 6,8 74 40 83 45 W 988,4 10
08.12.2018 22:00:00 10,5 6,8 61 33 72 39 SW 989,0 10
08.12.2018 21:00:00 8,9 7,9 65 35 79 43 WNW 989,4 2,2
08.12.2018 20:00:00 11,7 8,2 72 39 72 39 SSW 989,7 10
08.12.2018 19:00:00 11,3 8,9 61 33 65 35 S 991,1 10
08.12.2018 18:00:00 10,0 8,8 63 34 68 37 SSW 993,5 6
08.12.2018 17:00:00 10,8 5,7 67 36 72 39 SSW 995,4 10
08.12.2018 16:00:00 10,5 5,4 70 38 72 39 SSW 996,3 10
08.12.2018 15:00:00 10,5 5,1 68 37 72 39 SW 996,2 10
08.12.2018 14:00:00 10,6 5,1 72 39 76 41 SW 996,6 10
08.12.2018 13:00:00 10,6 5,6 78 42 86 47 SW 996,4 10
08.12.2018 12:00:00 10,7 5,5 81 44 83 45 SW 995,9 10
08.12.2018 11:00:00 10,5 5,7 76 41 79 43 SW 996,0 10
08.12.2018 10:00:00 10,5 5,7 70 38 79 43 SW 995,9 10
08.12.2018 09:00:00 10,5 5,6 76 41 79 43 SW 995,4 10
08.12.2018 08:00:00 10,3 6,1 80 43 83 45 SW 995,0 10
08.12.2018 07:00:00 9,9 5,3 78 42 83 45 SSW 995,3 10
08.12.2018 06:00:00 9,8 5,1 76 41 79 43 SSW 995,5 10
08.12.2018 05:00:00 9,7 5,0 74 40 72 39 SSW 996,2 10
08.12.2018 04:00:00 9,6 5,0 68 37 72 39 SSW 997,3 10
08.12.2018 03:00:00 9,3 4,5 68 37 72 39 SSW 997,7 10
08.12.2018 02:00:00 9,1 4,5 74 40 72 39 SSW 998,3 10
08.12.2018 01:00:00 8,9 3,9 65 35 65 35 SSW 998,3 10
08.12.2018 00:00:00 8,7 3,3 68 37 68 37 SW 998,8 10
07.12.2018 23:00:00 8,8 2,5 65 35 68 37 SW 998,5 10
07.12.2018 22:00:00 9,1 2,4 67 36 65 35 SW 998,3 10
07.12.2018 21:00:00 9,4 2,9 61 33 68 37 SW 997,9 10
07.12.2018 20:00:00 9,7 3,1 63 34 68 37 W 997,3 10
07.12.2018 19:00:00 10,0 4,1 63 34 68 37 W 996,4 10
07.12.2018 18:00:00 10,0 3,9 65 35 65 35 WNW 995,9 10
07.12.2018 17:00:00 8,9 4,6 35 19 65 35 WNW 995,3 10
07.12.2018 16:00:00 8,0 7,0 55 30 61 33 WNW 994,9 8
07.12.2018 15:00:00 8,2 7,6 63 34 65 35 SW 994,0 1,6
07.12.2018 14:00:00 10,9 10,3 67 36 72 39 S 994,3 4,1
07.12.2018 13:00:00 11,1 10,7 70 38 72 39 S 995,6 3,0
07.12.2018 12:00:00 11,3 10,8 68 37 68 37 S 997,3 3,7
07.12.2018 11:00:00 11,9 10,6 67 36 76 41 S 998,8 10
07.12.2018 10:00:00 12,0 10,8 68 37 68 37 S 999,8 9
07.12.2018 09:00:00 12,1 11,0 67 36 65 35 S 1000,9 9
07.12.2018 08:00:00 11,6 11,4 61 33 61 33 S 1002,1 3,9
07.12.2018 07:00:00 11,8 11,4 55 30 54 29 S 1003,2 7
07.12.2018 06:00:00 11,8 11,4 50 27 50 27 S 1004,6 7
07.12.2018 05:00:00 11,8 11,3 48 26 47 25 S 1005,7 10
07.12.2018 04:00:00 11,6 11,2 44 24 43 23 S 1007,0 9
07.12.2018 03:00:00 11,4 11,2 44 24 50 27 SSW 1008,1 2,8
07.12.2018 02:00:00 11,8 11,1 46 25 47 25 S 1008,6 6
07.12.2018 01:00:00 11,7 11,1 52 28 50 27 SSW 1009,4 8
07.12.2018 00:00:00 11,8 11,0 50 27 58 31 SSW 1009,7 9
06.12.2018 23:00:00 11,7 11,0 52 28 50 27 SSW 1010,0 3,5
06.12.2018 22:00:00 11,8 10,4 55 30 54 29 SSW 1010,3 10
06.12.2018 21:00:00 11,9 10,3 55 30 54 29 SSW 1010,3 10
06.12.2018 20:00:00 11,7 10,6 54 29 54 29 S 1010,6 10
06.12.2018 19:00:00 11,4 10,9 52 28 54 29 S 1011,0 6
06.12.2018 18:00:00 11,6 10,4 54 29 50 27 S 1010,7 10
06.12.2018 17:00:00 11,5 10,2 52 28 50 27 S 1011,3 10
06.12.2018 16:00:00 11,3 9,8 46 25 47 25 S 1011,4 10
06.12.2018 15:00:00 11,3 9,7 44 24 47 25 S 1011,6 10
06.12.2018 14:00:00 11,2 9,3 44 24 50 27 SSW 1012,2 10
06.12.2018 13:00:00 11,4 10,2 37 20 40 21 SSW 1012,6 10
06.12.2018 12:00:00 11,5 10,4 37 20 36 19 SSW 1013,0 10
06.12.2018 11:00:00 11,5 10,3 29 16 32 18 SSW 1013,0 10
06.12.2018 10:00:00 11,4 10,7 35 19 36 19 SSW 1012,5 6
06.12.2018 09:00:00 11,3 10,8 26 14 29 16 SW 1011,8 6
06.12.2018 08:00:00 11,5 10,7 28 15 29 16 SW 1011,6 8
06.12.2018 07:00:00 11,5 10,8 31 17 32 18 SW 1011,0 7
06.12.2018 06:00:00 11,5 10,8 37 20 36 19 SW 1010,7 10
06.12.2018 05:00:00 11,4 10,9 28 15 29 16 SW 1009,9 9
06.12.2018 04:00:00 11,4 10,9 35 19 40 21 SSW 1010,2 9
06.12.2018 03:00:00 10,8 10,5 41 22 47 25 S 1009,5 3,7
06.12.2018 02:00:00 10,5 10,1 46 25 47 25 SSE 1009,1 5
06.12.2018 01:00:00 10,2 9,8 46 25 47 25 S 1009,0 5
06.12.2018 00:00:00 10,0 9,6 41 22 43 23 S 1009,9 3,4
05.12.2018 23:00:00 10,1 9,6 41 22 43 23 SSE 1010,3 7
05.12.2018 22:00:00 10,0 9,3 48 26 50 27 S 1010,7 7
05.12.2018 21:00:00 9,4 9,0 42 23 43 23 S 1010,8 2,4
05.12.2018 20:00:00 9,1 8,6 42 23 47 25 S 1011,4 2,2
05.12.2018 19:00:00 8,9 8,4 44 24 43 23 S 1012,1 3,5
05.12.2018 18:00:00 8,5 8,0 48 26 47 25 S 1012,7 4,3
05.12.2018 17:00:00 8,1 7,5 50 27 50 27 S 1013,6 4,6
05.12.2018 16:00:00 7,7 6,9 50 27 50 27 S 1014,4 4,8
05.12.2018 15:00:00 7,5 5,8 50 27 50 27 SSE 1015,4 5
05.12.2018 14:00:00 8,0 4,7 41 22 40 21 SSE 1016,7 10
05.12.2018 13:00:00 7,9 4,5 39 21 40 21 SSE 1018,3 10
05.12.2018 12:00:00 7,8 4,3 35 19 36 19 SSE 1019,6 10
05.12.2018 11:00:00 7,9 4,4 34 18 36 19 SSE 1020,4 10
05.12.2018 10:00:00 8,1 4,3 35 19 36 19 S 1021,2 10
05.12.2018 09:00:00 8,3 4,6 31 17 32 18 S 1021,5 10
05.12.2018 08:00:00 8,6 5,0 25 14 32 18 S 1022,1 29

tt = Température de l'air
td = dewpoint
ff = Vitesse du vent
fx = gusts
dd = Direction du vent
ppp = reduced air pressure
vv = visibility

stations d'obs. à proximité